Regional Weather Roundup
Issued by NWS Boston, MA

Home | Current Version | Previous Version | Text Only | Print | Product List | Glossary On
Versions: 1 2 3 4 5 6 7 8 9 10 11 12 13 14 15 16 17 18 19 20 21 22 23 24 25 26 27 28 29 30 31 32 33 34 35 36 37 38 39 40 41 42 43 44 45 46 47 48 49 50
000
ASUS41 KBOX 181010
RWRBOX

REGIONAL WEATHER ROUNDUP
NATIONAL WEATHER SERVICE TAUNTON MA
500 AM EST THU DEC 18 2014

NOTE:  "FAIR" INDICATES FEW OR NO CLOUDS BELOW 12,000 FEET WITH NO
SIGNIFICANT WEATHER AND/OR OBSTRUCTIONS TO VISIBILITY.  THE FOLLOWING
OBSERVATION LOCATIONS DO NOT REPORT PRESENT WEATHER...PROVINCETOWN...
SMITHFIELD...BLOCK ISLAND...KEENE...AND OXFORD.

MAZALL-181100-
EASTERN MASSACHUSETTS

CITY           SKY/WX    TMP DP  RH WIND       PRES   REMARKS
BOSTON         CLOUDY    39  31  72 W14G22    29.72R WCI  31
BEVERLY        CLOUDY    38  31  76 W12       29.69S WCI  30
LAWRENCE       LGT RAIN  37  32  82 W13       29.72R WCI  29
BEDFORD        CLOUDY    37  30  75 W13G22    29.72R WCI  29
BLUE HILL        N/A     36  29  75 W17G23    29.69R WCI  26
NORWOOD        CLOUDY    39  29  67 W14       29.73R WCI  31
MARSHFIELD     CLOUDY    39  32  75 W8        29.73R
PLYMOUTH       CLOUDY    38  30  73 W10       29.73R WCI  31
TAUNTON        CLOUDY    40  29  64 W6        29.74R
NEW BEDFORD    CLOUDY    39  31  72 W13       29.74R WCI  31
$$

MAZALL-181100-
CAPE COD AND THE ISLANDS

CITY           SKY/WX    TMP DP  RH WIND       PRES   REMARKS
FALMOUTH       CLOUDY    39  32  75 W14       29.73S WCI  31
HYANNIS        CLOUDY    39  30  70 W10       29.71R
CHATHAM        CLOUDY    38  31  76 VRB6      29.72S
PROVINCETOWN   CLOUDY    41  30  65 W20G25    29.70S WCI  32
NANTUCKET      CLOUDY    41  31  67 W20G25    29.74S WCI  32
MARTHAS VNYRD  CLOUDY    40  30  67 W17G25    29.75S WCI  31
$$

MAZALL-181100-
CENTRAL AND WESTERN MASSACHUSETTS

CITY           SKY/WX    TMP DP  RH WIND       PRES   REMARKS
WORCESTER      FLURRIES  33  29  85 W15G28    29.71R WCI  23
FITCHBURG      CLOUDY    37  29  72 NW12      29.73S WCI  29
ORANGE         LGT SNOW  35  29  78 W8        29.74R WCI  29
SPRINGFIELD    MOCLDY    37  27  67 W14       29.78S WCI  29
WESTFIELD      CLOUDY    38  27  64 W8        29.79R
NORTH ADAMS    LGT SNOW  33  27  78 W17G25    29.80R WCI  22
PITTSFIELD     LGT SNOW  31  28  89 W16G26    29.78R VSB 1   WCI  20
$$

RIZALL-181100-
RHODE ISLAND

CITY           SKY/WX    TMP DP  RH WIND       PRES   REMARKS
PROVIDENCE     CLOUDY    39  29  67 W12G22    29.76R WCI  32
NEWPORT        CLOUDY    38  30  73 VRB5      29.76S
BLOCK ISLAND   CLOUDY    41  28  60 W18G33    29.79S
SMITHFIELD     CLOUDY    37  25  60 W10G17    29.73S WCI  30
WESTERLY       CLOUDY    39  31  72 W8        29.80S
$$

CTZALL-181100-
CONNECTICUT

CITY           SKY/WX    TMP DP  RH WIND       PRES   REMARKS
BRADLEY INTL   FLURRIES  38  28  67 W12G26    29.81R WCI  30
HARTFORD       CLOUDY    39  28  64 W10       29.84R
BRIDGEPORT     CLOUDY    39  28  64 W8        29.87R
DANBURY        CLOUDY    36  23  59 W10       29.86S WCI  28
GROTON         CLOUDY    38  31  76 W15G22    29.80S WCI  29
NEW HAVEN      CLOUDY    42  29  59 W8G17     29.86R
CHESTER        MOCLDY    37  30  75 W12G21    29.82S WCI  30
MERIDEN        CLOUDY    38  28  67 W9        29.85R WCI  31
WILLIMANTIC    CLOUDY    39  28  64 W9G20     29.80R
OXFORD         CLOUDY    36  25  64 W8        29.84R WCI  29
$$

MEZ002-015-021-024-NHZ003-005-008-011-012-014-VTZ005-008-181100-
NORTHERN NEW ENGLAND

CITY           SKY/WX    TMP DP  RH WIND       PRES   REMARKS
PORTLAND ME    LGT RAIN  39  36  89 W6        29.64S
BANGOR ME      LGT SNOW  32  29  88 N20G29    29.58S FOG     WCI  20
CONCORD NH     LGT RAIN  35  32  88 W7        29.69S WCI  29
MANCHESTER NH  FLURRIES  37  32  82 W8        29.69S WCI  31
NASHUA NH      CLOUDY    38  32  79 VRB7      29.72R
PORTSMOUTH NH  LGT RAIN  37  34  88 W12       29.66S WCI  29
JAFFREY NH     LGT SNOW  33  29  85 W10G18    29.70S FOG     WCI  25
KEENE NH       CLOUDY    34  30  86 CALM      29.74R
BURLINGTON VT  LGT SNOW  34  32  92 CALM      29.77S FOG
MT. WASHINGTON SNOW      14  14 100 NW52G58     N/A  VSB 0   WCI -12
$$

NYZ052-076-181100-
EASTERN NEW YORK

CITY           SKY/WX    TMP DP  RH WIND       PRES   REMARKS
ALBANY         FLURRIES  35  28  75 W14       29.86R WCI  26
NEW YORK CITY  MOCLDY    39  24  55 NW20G29   29.91R WCI  29
$$

ANZALL-181100-
MARINE OBSERVATIONS

STATION/POSITION TIME  TEMP    WIND        PRES    VSBY  WAVE
                       AIR SEA DIR/SP/G                  HT/PER
                 (UTC) (F)     (DEG/KT/KT) (MB)    (MI)  (FT/S)
BOSTON BUOY      0950   40 45  290/ 21/ 27 1005.2F         4/ 8
BUZZARDS BAY     0900          270/ 25/ 29 1008.0S
NANTUCKET SOUND  0950   41 44  270/ 19/ 23 1006.3R         3/ 4
MASS BAY-STELLWA 0904   40 45  270/ 19/ 21   N/A    1 7/8  4/ 8
ISLE OF SHOALS   0900   39     290/ 21/ 25 1003.5R
S OF BLOCK IS    0908      52                N/A           7/ 6
$$

......................KEY.........................
  SKY/WX - SKY CONDITION/PRESENT WEATHER
  TMP    - TEMPERATURE IN FAHRENHEIT
  DWPT   - DEWPOINT IN FAHRENHEIT
  RH     - RELATIVE HUMIDITY IN PERCENT
  WIND   - DIRECTION AND SPEED IN MPH
  PRES   - MEAN SEA LEVEL PRESSURE IN INCHES OF HG
  WCI    - WIND CHILL INDEX
  VSB    - VISIBILITY IN MILES
  HX     - HEAT INDEX
  TC     - TEMPERATURE IN CELSIUS
  VRB    - VARIABLE WIND DIRECTION
  N/A    - NOT AVAILABLE


USA.gov is the U.S. government's official web portal to all federal, state and local government web resources and services.